Ketchikan, AK

4:22 PM AKDT on May 25, 2018 (GMT -0800)
Ketchikan International

Weather History for PAKT - May, 2018

Change the Weather History Date:

Thursday, May 3, 2018

  Actual Average Record
Temperature  
Mean Temperature 46 °F -  
Max Temperature 48 °F 53 °F 67 °F (1967)
Min Temperature 44 °F 39 °F 27 °F (2002)
Degree Days  
Heating Degree Days 19    
Moisture  
Dew Point 45 °F    
Average Humidity 95    
Maximum Humidity 100    
Minimum Humidity 87    
Precipitation  
Precipitation 0.12 in - - ()
Sea Level Pressure  
Sea Level Pressure 30.05 in    
Wind  
Wind Speed 4 mph (SE)    
Max Wind Speed 10 mph    
Max Gust Speed -    
Visibility 8 miles    
Events Rain    
Averages and records for this station are not official NWS values.
T = Trace of Precipitation, MM = Missing Value Source: NWS Daily Summary

Daily Weather History Graph

Daily Weather History Graph

Search for Another Location

Airport or City:

Astronomy

May. 03, 2018 Rise Set
Actual Time 5:00 AM AKDT 8:28 PM AKDT
Civil Twilight 4:16 AM AKDT 9:12 PM AKDT
Nautical Twilight 3:15 AM AKDT 10:14 PM AKDT
Astronomical Twilight 1:38 AM AKDT 11:57 PM AKDT
Moon No Moon Rise 7:32 AM AKDT (5/3)
Length of Visible Light 16h 56m
Length of Day
15h 27m
Waning Gibbous, 86% of the Moon is Illuminated
May 3
Waning Gibbous
May 7
Last Quarter
May 15
New
May 21
First Quarter
May 29
Full

Hourly Weather History & Observations

Time (AKDT) Temp. Windchill Dew Point Humidity Pressure Visibility Wind Dir Wind Speed Gust Speed Precip Events Conditions
12:53 AM 46.9 °F - 45.0 °F 93% 30.08 in 8.0 mi Calm Calm - 0.02 in Rain Light Rain
1:53 AM 46.0 °F - 45.0 °F 96% 30.07 in 10.0 mi Calm Calm - 0.03 in Rain Light Rain
2:28 AM 46.0 °F 44.8 °F 45.0 °F 96% 30.06 in 10.0 mi NW 3.5 mph - 0.01 in Rain Light Rain
2:53 AM 46.0 °F 44.8 °F 44.1 °F 93% 30.06 in 9.0 mi NW 3.5 mph - 0.01 in Rain Light Rain
3:53 AM 44.1 °F 42.5 °F 43.0 °F 96% 30.05 in 7.0 mi NW 3.5 mph - 0.03 in Rain Light Rain
4:48 AM 44.6 °F 43.1 °F 42.8 °F 93% 30.03 in 7.0 mi WNW 3.5 mph - 0.02 in Rain Light Rain
4:53 AM 44.1 °F 42.5 °F 43.0 °F 96% 30.04 in 5.0 mi NW 3.5 mph - 0.02 in Rain Light Rain
5:53 AM 44.1 °F 42.5 °F 43.0 °F 96% 30.03 in 10.0 mi NW 3.5 mph - 0.01 in Rain Light Rain
6:01 AM 44.6 °F 43.1 °F 42.8 °F 93% 30.02 in 9.0 mi WNW 3.5 mph - N/A Rain Light Rain
6:53 AM 44.6 °F 43.1 °F 42.8 °F 93% 30.03 in 4.0 mi NNW 3.5 mph - N/A Rain Light Rain
7:53 AM 44.6 °F - 42.8 °F 93% 30.04 in 9.0 mi Calm Calm - N/A Rain Light Rain
8:53 AM 44.6 °F 42.2 °F 42.8 °F 93% 30.03 in 6.0 mi NNW 4.6 mph - N/A Rain Light Rain
9:53 AM 44.6 °F - 42.8 °F 93% 30.04 in 8.0 mi Calm Calm - N/A Rain Light Rain
10:53 AM 46.4 °F 41.5 °F 46.4 °F 100% 30.04 in 6.0 mi SE 10.4 mph - N/A Rain Light Rain
11:53 AM 48.2 °F - 46.4 °F 93% 30.04 in 10.0 mi ESE 10.4 mph - N/A   Overcast
12:53 PM 48.2 °F - 46.4 °F 93% 30.04 in 9.0 mi ESE 9.2 mph - N/A Rain Light Rain
1:53 PM 48.2 °F - 46.4 °F 93% 30.05 in 8.0 mi SE 5.8 mph - N/A   Overcast
2:53 PM 48.2 °F - 46.4 °F 93% 30.05 in 3.0 mi ESE 9.2 mph - N/A Rain Light Rain
3:53 PM 48.2 °F - 46.4 °F 93% 30.05 in 10.0 mi ESE 10.4 mph - N/A Rain Light Rain
4:53 PM 48.2 °F - 46.4 °F 93% 30.05 in 10.0 mi SE 5.8 mph - N/A Rain Light Rain
5:53 PM 48.2 °F - 44.6 °F 87% 30.04 in 10.0 mi SSE 4.6 mph - N/A Rain Light Rain
6:53 PM 48.0 °F - 46.0 °F 93% 30.03 in 10.0 mi Calm Calm - 0.00 in   Overcast
7:53 PM 46.4 °F 43.5 °F 46.4 °F 100% 30.04 in 10.0 mi SE 5.8 mph - N/A   Overcast
8:53 PM 46.4 °F 44.3 °F 46.4 °F 100% 30.05 in 10.0 mi South 4.6 mph - N/A   Overcast
9:17 PM 46.9 °F - 46.0 °F 97% 30.05 in 9.0 mi South 4.6 mph - N/A   Overcast
9:53 PM 46.9 °F - 46.0 °F 97% 30.06 in 4.0 mi SE 5.8 mph - N/A   Overcast
10:09 PM 46.9 °F - 46.0 °F 97% 30.06 in 2.5 mi SE 8.1 mph - N/A   Overcast
10:24 PM 46.9 °F - 46.0 °F 97% 30.06 in 3.0 mi SE 5.8 mph - N/A   Overcast
10:53 PM 46.9 °F - 46.0 °F 97% 30.07 in 10.0 mi SE 4.6 mph - N/A   Overcast
11:01 PM 46.9 °F - 46.0 °F 97% 30.07 in 10.0 mi SSE 5.8 mph - N/A   Overcast
11:17 PM 46.9 °F - 45.0 °F 93% 30.07 in 10.0 mi SE 3.5 mph - N/A   Overcast
11:53 PM 46.9 °F - 45.0 °F 93% 30.09 in 10.0 mi SE 3.5 mph - N/A   Overcast